STARLINK-35395, 66014

Orbit data source: Space-Track

STARLINK-35395, 66014 is a payload satellite owned by SpaceX/Seattle (US) in LEO that was launched on Thu, 16 Oct 2025 UTC via an FALCON 9 launch vehicle from the Air Force Eastern Test Range (AFETR). Payload-class satellites include a variety of spacecraft equipped with specific instruments for various scientific and technological missions. These include communications satellites like Starlink; space stations such as the ISS; scientific satellites like the Hubble; Earth observation satellites from companies like Planet Labs, Umbra, and HawkEye 360; GPS; miniature CubeSats for education and research; and military/defense satellites.

Loading next visibility...
Identifier
66014, 2025-232K
Orbit
LEO
Country
Flag of USUS
Related business
Manufacturer
SpaceX/Seattle
Mission
Operational spacecraft
Bus & Motor
STARLINK V2MO, Unknown motor
Mass
575 kg wet, ~530 kg dry
Launch date (UTC)
2025-10-16 (1 week ago)
Launch vehicle
FALCON 9
Launch site
Air Force Eastern Test Range (AFETR)
Object type
Payload
Rocket body
Debris
Shape & HBR
Unknown shape, 17.7 m
Radar Cross Section
RCS unknown

Expand to show TLE details & history
Last TLE update: 8 hours ago

TLE from 8 hours ago
0 STARLINK-35395
1 66014U 25232K   25298.91668981 -.01445077  00000-0 -64970-2 0  9993
2 66014  53.1554  15.2271 0001084  52.1875  69.7825 15.86345954  1863
Epoch: 2025-10-25T22:00Z
TLE epoch observation values (Epoch: 2025-10-25T22:00:01.999Z)
Latitude
42.88957°
Longitude
146.88035°
Altitude
316.486 km
Speed
7.724 km/s
True Right ascension
10h 05m 42s
True Declination
42° 42' 24"
Sunlit
Object was in daylight at epoch
Visualization orbit readout
Latitude
Unknown
Longitude
Unknown
Altitude
Unknown
Speed
Unknown
Apparent Right ascension
Unknown
Apparent Declination
Unknown
Sunlit
N/A
Visualization observer readout
Local Sidereal Time
01:21:22
Azimuth
Unknown
Elevation
Unknown
Doppler factor
Unknown
Orbital elements
Apogee altitude
313.526 km
Perigee altitude
312.075 km
Semi-major axis
6,690.938 km
Eccentricity
0.00011
Inclination
53.1554°
RAAN
15.2271°
Arg. of periapsis
52.1875°
True anomaly
69.79416°
Mean anomaly
69.7825°
Eccentric anomaly
69.78833°
Mean motion
3.96563 °/min
Orbital period
90.78 mins
BSTAR
-0.006497
Loading maneuver chart data...
Computing Atmospheric mass density...
Loading historical data...
Loading historical data...
Loading historical data...
Loading historical data...
Loading historical data...
Loading historical data...
Loading historical data...

Documentation

Showing up to 5 results
|